Location: Newark
(43.0000°N, 1.6781°W)
Time: 17:02:08
(UTC+00:00)

Tiangong - Pass Details

Date: 27 September 2021
Orbit: 382 x 384 km, 41.5° (Epoch: 20 October)

Event Time Altitude Azimuth Distance (km) Brightness Sun altitude
Exits shadow 04:31:10 17° 183° (S) 1,037 3.1 -16.9°
Maximum altitude 04:32:16 21° 154° (SSE) 926 3.1 -16.7°
Drops below altitude 10° 04:34:42 10° 103° (ESE) 1,395 4.9 -16.2°
Sets 04:37:05 0° 87° (E) 2,249 6.7 -15.8°
